Wetterstation Bremen Blumenthal 53.19 Nord 008.57 Ost
Wetterdaten: aktuell Sonntag, 24.09.2023 10:06
Datum Zeit Temp.2m Temp 5cm Temp - 30cm Feuchte A.2m BlattFeu 1 Luftdruck Regen Wind Richtung Richtung Sonnenschein Zeit Regen ET UV Solar Taupunkt Windchill Windben
24.09.2023 10:06 12,5 C 12,8 C 13,3 C 98 % 0 lf 1026,1 hPa 0,0 l/m 4,9 km/h (1 Bft) S-SO 149 0 min 0 min 0,000 mm 0,0 UV-I 75 W/m 12,2 C 12,5 C 9,7 km/h (2 Bft)
24.09.2023 10:04 12,4 C 12,8 C 13,3 C 98 % 0 lf 1026,1 hPa 0,0 l/m 4,8 km/h (1 Bft) S-SO 161 0 min 0 min 0,000 mm 0,0 UV-I 80 W/m 12,1 C 12,4 C 9,7 km/h (2 Bft)
24.09.2023 10:02 12,4 C 12,8 C 13,3 C 98 % 0 lf 1026,0 hPa 0,0 l/m 3,1 km/h (1 Bft) S 188 0 min 0 min 0,051 mm 0,0 UV-I 74 W/m 12,1 C 12,4 C 6,4 km/h (2 Bft)
24.09.2023 10:00 12,3 C 12,8 C 13,3 C 98 % 0 lf 1026,1 hPa 0,0 l/m 5,4 km/h (2 Bft) S 188 0 min 0 min 0,000 mm 0,0 UV-I 82 W/m 12,0 C 12,3 C 11,3 km/h (2 Bft)
24.09.2023 09:58 12,3 C 12,8 C 13,3 C 98 % 0 lf 1026,0 hPa 0,0 l/m 5,3 km/h (1 Bft) S 169 0 min 0 min 0,000 mm 0,0 UV-I 116 W/m 12,0 C 12,3 C 12,9 km/h (3 Bft)
24.09.2023 09:56 12,2 C 12,2 C 13,3 C 98 % 0 lf 1025,9 hPa 0,0 l/m 7,9 km/h (2 Bft) SW 232 0 min 0 min 0,000 mm 0,0 UV-I 98 W/m 11,9 C 12,2 C 11,3 km/h (2 Bft)
24.09.2023 09:54 12,2 C 12,2 C 13,3 C 98 % 0 lf 1025,9 hPa 0,0 l/m 6,4 km/h (2 Bft) S-SW 209 0 min 0 min 0,000 mm 0,0 UV-I 79 W/m 11,9 C 12,2 C 9,7 km/h (2 Bft)
24.09.2023 09:52 12,1 C 12,2 C 13,3 C 98 % 0 lf 1025,9 hPa 0,0 l/m 6,7 km/h (2 Bft) S 173 0 min 0 min 0,000 mm 0,0 UV-I 64 W/m 11,8 C 12,1 C 9,7 km/h (2 Bft)
24.09.2023 09:50 12,1 C 12,2 C 13,3 C 98 % 0 lf 1025,8 hPa 0,0 l/m 8,0 km/h (2 Bft) SW 226 0 min 0 min 0,000 mm 0,0 UV-I 65 W/m 11,8 C 12,1 C 12,9 km/h (3 Bft)
24.09.2023 09:48 12,1 C 12,2 C 13,3 C 98 % 0 lf 1025,9 hPa 0,0 l/m 5,2 km/h (1 Bft) S 191 0 min 0 min 0,000 mm 0,0 UV-I 71 W/m 11,8 C 12,1 C 9,7 km/h (2 Bft)
24.09.2023 09:46 12,1 C 12,2 C 13,3 C 98 % 0 lf 1025,8 hPa 0,0 l/m 7,8 km/h (2 Bft) S 171 0 min 0 min 0,000 mm 0,0 UV-I 93 W/m 11,8 C 12,1 C 12,9 km/h (3 Bft)
24.09.2023 09:44 12,1 C 12,2 C 13,3 C 98 % 0 lf 1025,8 hPa 0,0 l/m 5,2 km/h (1 Bft) S 190 0 min 0 min 0,000 mm 0,0 UV-I 103 W/m 11,8 C 12,1 C 9,7 km/h (2 Bft)
24.09.2023 09:42 12,0 C 12,2 C 13,3 C 98 % 0 lf 1025,8 hPa 0,0 l/m 6,7 km/h (2 Bft) S-SO 160 0 min 0 min 0,000 mm 0,0 UV-I 96 W/m 11,7 C 12,0 C 9,7 km/h (2 Bft)
24.09.2023 09:40 11,9 C 12,2 C 13,3 C 98 % 0 lf 1025,9 hPa 0,0 l/m 4,8 km/h (1 Bft) S-SO 155 0 min 0 min 0,000 mm 0,0 UV-I 85 W/m 11,6 C 11,9 C 11,3 km/h (2 Bft)
24.09.2023 09:38 11,8 C 12,2 C 13,3 C 98 % 0 lf 1025,8 hPa 0,0 l/m 4,3 km/h (1 Bft) S 169 0 min 0 min 0,000 mm 0,0 UV-I 63 W/m 11,5 C 11,8 C 9,7 km/h (2 Bft)
24.09.2023 09:36 11,8 C 12,2 C 13,3 C 98 % 0 lf 1025,8 hPa 0,0 l/m 3,4 km/h (1 Bft) S 184 0 min 0 min 0,000 mm 0,0 UV-I 70 W/m 11,5 C 11,8 C 8,0 km/h (2 Bft)
24.09.2023 09:34 11,7 C 12,2 C 13,3 C 98 % 0 lf 1025,8 hPa 0,0 l/m 6,0 km/h (2 Bft) S-SO 166 0 min 0 min 0,000 mm 0,0 UV-I 69 W/m 11,4 C 11,7 C 9,7 km/h (2 Bft)
24.09.2023 09:32 11,7 C 12,2 C 13,3 C 98 % 0 lf 1025,8 hPa 0,0 l/m 5,5 km/h (2 Bft) S 176 0 min 0 min 0,000 mm 0,0 UV-I 60 W/m 11,4 C 11,7 C 12,9 km/h (3 Bft)
24.09.2023 09:30 11,7 C 11,7 C 13,3 C 98 % 0 lf 1025,7 hPa 0,0 l/m 6,0 km/h (2 Bft) S 182 0 min 0 min 0,000 mm 0,0 UV-I 62 W/m 11,4 C 11,7 C 11,3 km/h (2 Bft)
24.09.2023 09:28 11,7 C 11,7 C 13,3 C 98 % 0 lf 1025,8 hPa 0,0 l/m 4,4 km/h (1 Bft) S 175 0 min 0 min 0,000 mm 0,0 UV-I 71 W/m 11,4 C 11,7 C 11,3 km/h (2 Bft)
24.09.2023 09:26 11,6 C 11,7 C 13,3 C 98 % 0 lf 1025,8 hPa 0,0 l/m 9,0 km/h (2 Bft) S 187 0 min 0 min 0,000 mm 0,0 UV-I 64 W/m 11,3 C 11,6 C 16,1 km/h (3 Bft)
24.09.2023 09:24 11,6 C 11,7 C 13,3 C 98 % 0 lf 1025,7 hPa 0,0 l/m 6,2 km/h (2 Bft) S-SO 165 0 min 0 min 0,000 mm 0,0 UV-I 56 W/m 11,3 C 11,6 C 9,7 km/h (2 Bft)
24.09.2023 09:22 11,6 C 11,7 C 13,3 C 98 % 0 lf 1025,8 hPa 0,0 l/m 6,8 km/h (2 Bft) S-SW 199 0 min 0 min 0,000 mm 0,0 UV-I 64 W/m 11,3 C 11,6 C 9,7 km/h (2 Bft)
24.09.2023 09:20 11,5 C 11,7 C 13,3 C 98 % 0 lf 1025,7 hPa 0,0 l/m 4,7 km/h (1 Bft) S-SO 150 0 min 0 min 0,000 mm 0,0 UV-I 65 W/m 11,2 C 11,5 C 9,7 km/h (2 Bft)
24.09.2023 09:18 11,5 C 11,7 C 13,3 C 98 % 0 lf 1025,7 hPa 0,0 l/m 6,5 km/h (2 Bft) S-SO 156 0 min 0 min 0,000 mm 0,0 UV-I 67 W/m 11,2 C 11,5 C 9,7 km/h (2 Bft)
24.09.2023 09:16 11,5 C 11,7 C 13,3 C 98 % 0 lf 1025,7 hPa 0,0 l/m 5,7 km/h (2 Bft) SW 217 0 min 0 min 0,000 mm 0,0 UV-I 68 W/m 11,2 C 11,5 C 9,7 km/h (2 Bft)
24.09.2023 09:14 11,4 C 11,7 C 13,3 C 98 % 0 lf 1025,6 hPa 0,0 l/m 6,1 km/h (2 Bft) SO 142 0 min 0 min 0,000 mm 0,0 UV-I 71 W/m 11,1 C 11,4 C 11,3 km/h (2 Bft)
24.09.2023 09:12 11,4 C 11,7 C 13,3 C 98 % 0 lf 1025,6 hPa 0,0 l/m 4,9 km/h (1 Bft) S 178 0 min 0 min 0,000 mm 0,0 UV-I 64 W/m 11,1 C 11,4 C 9,7 km/h (2 Bft)
24.09.2023 09:10 11,3 C 11,7 C 13,3 C 98 % 0 lf 1025,5 hPa 0,0 l/m 3,0 km/h (1 Bft) SO 132 0 min 0 min 0,000 mm 0,0 UV-I 62 W/m 11,0 C 11,3 C 6,4 km/h (2 Bft)
24.09.2023 09:08 11,3 C 11,7 C 13,3 C 98 % 0 lf 1025,5 hPa 0,0 l/m 5,8 km/h (2 Bft) S 172 0 min 0 min 0,000 mm 0,0 UV-I 54 W/m 11,0 C 11,3 C 9,7 km/h (2 Bft)
24.09.2023 09:06 11,2 C 11,7 C 13,3 C 98 % 0 lf 1025,6 hPa 0,0 l/m 3,4 km/h (1 Bft) S 178 0 min 0 min 0,000 mm 0,0 UV-I 59 W/m 10,9 C 11,2 C 8,0 km/h (2 Bft)
24.09.2023 09:04 11,2 C 11,7 C 13,3 C 98 % 0 lf 1025,6 hPa 0,0 l/m 4,8 km/h (1 Bft) S 170 0 min 0 min 0,000 mm 0,0 UV-I 64 W/m 10,9 C 11,2 C 8,0 km/h (2 Bft)
24.09.2023 09:02 11,1 C 11,7 C 13,3 C 98 % 0 lf 1025,5 hPa 0,0 l/m 4,7 km/h (1 Bft) S-SW 201 0 min 0 min 0,000 mm 0,0 UV-I 55 W/m 10,8 C 11,1 C 8,0 km/h (2 Bft)
24.09.2023 09:00 11,1 C 11,7 C 13,3 C 98 % 0 lf 1025,5 hPa 0,0 l/m 7,5 km/h (2 Bft) S 178 0 min 0 min 0,025 mm 0,0 UV-I 56 W/m 10,8 C 11,1 C 12,9 km/h (3 Bft)
24.09.2023 08:58 11,1 C 11,7 C 13,3 C 98 % 0 lf 1025,5 hPa 0,0 l/m 6,6 km/h (2 Bft) SW 215 0 min 0 min 0,000 mm 0,0 UV-I 65 W/m 10,8 C 11,1 C 9,7 km/h (2 Bft)
24.09.2023 08:56 11,1 C 11,7 C 13,3 C 98 % 0 lf 1025,5 hPa 0,0 l/m 5,5 km/h (2 Bft) SW 216 0 min 0 min 0,000 mm 0,0 UV-I 63 W/m 10,8 C 11,1 C 9,7 km/h (2 Bft)
24.09.2023 08:54 11,1 C 11,1 C 13,3 C 98 % 0 lf 1025,4 hPa 0,0 l/m 4,0 km/h (1 Bft) S-SW 203 0 min 0 min 0,000 mm 0,0 UV-I 64 W/m 10,8 C 11,1 C 8,0 km/h (2 Bft)
24.09.2023 08:52 11,0 C 11,1 C 13,3 C 98 % 0 lf 1025,4 hPa 0,0 l/m 2,9 km/h (1 Bft) SW 216 0 min 0 min 0,000 mm 0,0 UV-I 62 W/m 10,7 C 11,0 C 8,0 km/h (2 Bft)
24.09.2023 08:50 10,9 C 11,1 C 13,3 C 98 % 0 lf 1025,3 hPa 0,0 l/m 3,3 km/h (1 Bft) S 173 0 min 0 min 0,000 mm 0,0 UV-I 59 W/m 10,6 C 10,9 C 6,4 km/h (2 Bft)
24.09.2023 08:48 10,8 C 11,1 C 13,3 C 98 % 0 lf 1025,3 hPa 0,0 l/m 4,9 km/h (1 Bft) S-SO 168 0 min 0 min 0,000 mm 0,0 UV-I 53 W/m 10,5 C 10,8 C 11,3 km/h (2 Bft)
24.09.2023 08:46 10,8 C 11,1 C 13,3 C 98 % 0 lf 1025,3 hPa 0,0 l/m 2,0 km/h (1 Bft) S 176 0 min 0 min 0,000 mm 0,0 UV-I 55 W/m 10,5 C 10,8 C 3,2 km/h (1 Bft)
24.09.2023 08:44 10,7 C 11,1 C 13,3 C 98 % 0 lf 1025,3 hPa 0,0 l/m 2,9 km/h (1 Bft) S-SO 158 0 min 0 min 0,000 mm 0,0 UV-I 54 W/m 10,4 C 10,7 C 6,4 km/h (2 Bft)
24.09.2023 08:42 10,6 C 11,1 C 13,3 C 98 % 0 lf 1025,3 hPa 0,0 l/m 2,9 km/h (1 Bft) S 185 0 min 0 min 0,000 mm 0,0 UV-I 53 W/m 10,3 C 10,6 C 8,0 km/h (2 Bft)
24.09.2023 08:40 10,6 C 11,1 C 13,3 C 98 % 0 lf 1025,2 hPa 0,0 l/m 3,9 km/h (1 Bft) S-SW 205 0 min 0 min 0,000 mm 0,0 UV-I 54 W/m 10,3 C 10,6 C 9,7 km/h (2 Bft)
24.09.2023 08:38 10,4 C 11,1 C 13,3 C 98 % 0 lf 1025,2 hPa 0,0 l/m 5,1 km/h (1 Bft) S-SO 150 0 min 0 min 0,000 mm 0,0 UV-I 52 W/m 10,1 C 10,4 C 8,0 km/h (2 Bft)
24.09.2023 08:36 10,4 C 11,1 C 13,3 C 98 % 0 lf 1025,2 hPa 0,0 l/m 4,3 km/h (1 Bft) SO 144 0 min 0 min 0,000 mm 0,0 UV-I 49 W/m 10,1 C 10,4 C 8,0 km/h (2 Bft)
24.09.2023 08:34 10,3 C 10,6 C 13,3 C 98 % 0 lf 1025,0 hPa 0,0 l/m 2,6 km/h (1 Bft) SW 214 0 min 0 min 0,000 mm 0,0 UV-I 48 W/m 10,0 C 10,3 C 6,4 km/h (2 Bft)
24.09.2023 08:32 10,2 C 10,6 C 13,3 C 98 % 0 lf 1025,1 hPa 0,0 l/m 2,0 km/h (1 Bft) SO 130 0 min 0 min 0,000 mm 0,0 UV-I 45 W/m 9,9 C 10,2 C 3,2 km/h (1 Bft)
24.09.2023 08:30 10,2 C 10,6 C 13,3 C 98 % 0 lf 1025,0 hPa 0,0 l/m 2,2 km/h (1 Bft) S-SO 154 0 min 0 min 0,000 mm 0,0 UV-I 42 W/m 9,9 C 10,2 C 3,2 km/h (1 Bft)
24.09.2023 08:28 10,1 C 10,6 C 13,3 C 98 % 0 lf 1025,3 hPa 0,0 l/m 2,4 km/h (1 Bft) SO 139 0 min 0 min 0,000 mm 0,0 UV-I 42 W/m 9,8 C 10,1 C 4,8 km/h (1 Bft)
24.09.2023 08:26 10,1 C 10,6 C 13,3 C 98 % 0 lf 1024,9 hPa 0,0 l/m 4,8 km/h (1 Bft) SW 227 0 min 0 min 0,000 mm 0,0 UV-I 40 W/m 9,8 C 10,1 C 8,0 km/h (2 Bft)
24.09.2023 08:24 10,0 C 10,6 C 13,3 C 98 % 0 lf 1024,9 hPa 0,0 l/m 5,7 km/h (2 Bft) S-SO 161 0 min 0 min 0,000 mm 0,0 UV-I 39 W/m 9,7 C 9,6 C 11,3 km/h (2 Bft)
24.09.2023 08:22 9,9 C 10,6 C 13,3 C 98 % 0 lf 1024,9 hPa 0,0 l/m 5,0 km/h (1 Bft) S-SO 154 0 min 0 min 0,000 mm 0,0 UV-I 37 W/m 9,6 C 9,6 C 8,0 km/h (2 Bft)
24.09.2023 08:20 9,8 C 10,6 C 13,3 C 98 % 0 lf 1025,0 hPa 0,0 l/m 2,9 km/h (1 Bft) SO 139 0 min 0 min 0,000 mm 0,0 UV-I 39 W/m 9,5 C 9,8 C 9,7 km/h (2 Bft)
24.09.2023 08:18 9,8 C 10,6 C 13,3 C 98 % 0 lf 1025,0 hPa 0,0 l/m 3,4 km/h (1 Bft) S-SO 155 0 min 0 min 0,000 mm 0,0 UV-I 38 W/m 9,5 C 9,8 C 6,4 km/h (2 Bft)
24.09.2023 08:16 9,8 C 10,6 C 13,3 C 98 % 0 lf 1025,0 hPa 0,0 l/m 5,6 km/h (2 Bft) W-SW 238 0 min 0 min 0,000 mm 0,0 UV-I 35 W/m 9,5 C 9,4 C 9,7 km/h (2 Bft)
24.09.2023 08:14 9,8 C 10,6 C 13,3 C 98 % 0 lf 1025,0 hPa 0,0 l/m 4,0 km/h (1 Bft) S-SW 213 0 min 0 min 0,000 mm 0,0 UV-I 34 W/m 9,5 C 9,8 C 8,0 km/h (2 Bft)
24.09.2023 08:12 9,8 C 10,6 C 13,3 C 98 % 0 lf 1025,0 hPa 0,0 l/m 2,7 km/h (1 Bft) S-SW 213 0 min 0 min 0,000 mm 0,0 UV-I 33 W/m 9,5 C 9,8 C 6,4 km/h (2 Bft)
24.09.2023 08:10 9,8 C 10,6 C 13,3 C 98 % 0 lf 1025,0 hPa 0,0 l/m 5,8 km/h (2 Bft) S-SO 168 0 min 0 min 0,000 mm 0,0 UV-I 30 W/m 9,5 C 9,3 C 9,7 km/h (2 Bft)
24.09.2023 08:08 9,8 C 10,6 C 13,3 C 98 % 0 lf 1025,1 hPa 0,0 l/m 6,0 km/h (2 Bft) S-SW 195 0 min 0 min 0,000 mm 0,0 UV-I 29 W/m 9,5 C 9,2 C 9,7 km/h (2 Bft)
24.09.2023 08:06 9,7 C 10,6 C 13,3 C 98 % 0 lf 1025,0 hPa 0,0 l/m 2,9 km/h (1 Bft) S-SW 202 0 min 0 min 0,000 mm 0,0 UV-I 30 W/m 9,4 C 9,7 C 6,4 km/h (2 Bft)
24.09.2023 08:04 9,7 C 10,6 C 13,3 C 98 % 0 lf 1024,9 hPa 0,0 l/m 2,1 km/h (1 Bft) S-SW 200 0 min 0 min 0,000 mm 0,0 UV-I 30 W/m 9,4 C 9,7 C 6,4 km/h (2 Bft)
24.09.2023 08:02 9,7 C 10,6 C 13,3 C 98 % 0 lf 1024,8 hPa 0,0 l/m 3,8 km/h (1 Bft) S 184 0 min 0 min 0,000 mm 0,0 UV-I 32 W/m 9,4 C 9,7 C 6,4 km/h (2 Bft)
24.09.2023 08:00 9,7 C 10,6 C 13,3 C 98 % 0 lf 1024,7 hPa 0,0 l/m 3,4 km/h (1 Bft) S 184 0 min 0 min 0,000 mm 0,0 UV-I 32 W/m 9,4 C 9,7 C 6,4 km/h (2 Bft)
24.09.2023 07:58 9,7 C 10,6 C 13,3 C 98 % 0 lf 1024,7 hPa 0,0 l/m 2,4 km/h (1 Bft) SW 215 0 min 0 min 0,000 mm 0,0 UV-I 30 W/m 9,4 C 9,7 C 6,4 km/h (2 Bft)
24.09.2023 07:56 9,7 C 10,0 C 13,3 C 98 % 0 lf 1024,5 hPa 0,0 l/m 3,8 km/h (1 Bft) S 169 0 min 0 min 0,000 mm 0,0 UV-I 26 W/m 9,4 C 9,7 C 8,0 km/h (2 Bft)
24.09.2023 07:54 9,6 C 10,0 C 13,3 C 98 % 0 lf 1024,5 hPa 0,0 l/m 1,7 km/h (1 Bft) S 186 0 min 0 min 0,000 mm 0,0 UV-I 20 W/m 9,3 C 9,6 C 8,0 km/h (2 Bft)
24.09.2023 07:52 9,6 C 10,0 C 13,3 C 98 % 0 lf 1024,5 hPa 0,0 l/m 2,0 km/h (1 Bft) S-SO 150 0 min 0 min 0,000 mm 0,0 UV-I 19 W/m 9,3 C 9,6 C 3,2 km/h (1 Bft)
24.09.2023 07:50 9,6 C 10,0 C 13,3 C 98 % 0 lf 1024,5 hPa 0,0 l/m 3,6 km/h (1 Bft) S 187 0 min 0 min 0,000 mm 0,0 UV-I 19 W/m 9,3 C 9,6 C 8,0 km/h (2 Bft)
24.09.2023 07:48 9,6 C 10,0 C 13,3 C 98 % 0 lf 1024,4 hPa 0,0 l/m 4,9 km/h (1 Bft) S 187 0 min 0 min 0,000 mm 0,0 UV-I 18 W/m 9,3 C 9,3 C 9,7 km/h (2 Bft)
24.09.2023 07:46 9,6 C 10,0 C 13,3 C 98 % 0 lf 1024,4 hPa 0,0 l/m 3,7 km/h (1 Bft) S 176 0 min 0 min 0,000 mm 0,0 UV-I 16 W/m 9,3 C 9,6 C 6,4 km/h (2 Bft)
24.09.2023 07:44 9,6 C 10,0 C 13,3 C 98 % 0 lf 1024,3 hPa 0,0 l/m 2,0 km/h (1 Bft) S-SW 193 0 min 0 min 0,000 mm 0,0 UV-I 13 W/m 9,3 C 9,6 C 3,2 km/h (1 Bft)
24.09.2023 07:42 9,6 C 10,0 C 13,3 C 98 % 0 lf 1024,3 hPa 0,0 l/m 3,1 km/h (1 Bft) S-SO 155 0 min 0 min 0,000 mm 0,0 UV-I 12 W/m 9,3 C 9,6 C 8,0 km/h (2 Bft)
24.09.2023 07:40 9,6 C 10,0 C 13,3 C 98 % 0 lf 1024,3 hPa 0,0 l/m 3,6 km/h (1 Bft) S-SW 210 0 min 0 min 0,000 mm 0,0 UV-I 12 W/m 9,3 C 9,6 C 8,0 km/h (2 Bft)
24.09.2023 07:38 9,6 C 10,0 C 13,3 C 98 % 0 lf 1024,3 hPa 0,0 l/m 1,1 km/h (1 Bft) S-SW 213 0 min 0 min 0,000 mm 0,0 UV-I 12 W/m 9,3 C 9,6 C 3,2 km/h (1 Bft)
24.09.2023 07:36 9,6 C 10,0 C 13,3 C 97 % 0 lf 1024,2 hPa 0,0 l/m 3,8 km/h (1 Bft) SO 146 0 min 0 min 0,000 mm 0,0 UV-I 11 W/m 9,1 C 9,6 C 6,4 km/h (2 Bft)
24.09.2023 07:34 9,6 C 10,0 C 13,3 C 97 % 0 lf 1024,2 hPa 0,0 l/m 2,5 km/h (1 Bft) S-SW 209 0 min 0 min 0,000 mm 0,0 UV-I 10 W/m 9,1 C 9,6 C 6,4 km/h (2 Bft)
24.09.2023 07:32 9,6 C 10,0 C 13,3 C 97 % 0 lf 1024,2 hPa 0,0 l/m 1,7 km/h (1 Bft) S-SO 155 0 min 0 min 0,000 mm 0,0 UV-I 9 W/m 9,1 C 9,6 C 3,2 km/h (1 Bft)
24.09.2023 07:30 9,6 C 10,0 C 13,3 C 97 % 0 lf 1024,1 hPa 0,0 l/m 3,6 km/h (1 Bft) SO 144 0 min 0 min 0,000 mm 0,0 UV-I 7 W/m 9,1 C 9,6 C 6,4 km/h (2 Bft)
24.09.2023 07:28 9,7 C 10,0 C 13,3 C 97 % 0 lf 1024,2 hPa 0,0 l/m 3,6 km/h (1 Bft) S 177 0 min 0 min 0,000 mm 0,0 UV-I 7 W/m 9,2 C 9,7 C 6,4 km/h (2 Bft)
24.09.2023 07:26 9,7 C 10,0 C 13,3 C 97 % 0 lf 1024,1 hPa 0,0 l/m 1,7 km/h (1 Bft) S-SO 156 0 min 0 min 0,000 mm 0,0 UV-I 6 W/m 9,2 C 9,7 C 3,2 km/h (1 Bft)
24.09.2023 07:24 9,7 C 10,0 C 13,3 C 97 % 0 lf 1024,1 hPa 0,0 l/m 3,9 km/h (1 Bft) S-SO 150 0 min 0 min 0,000 mm 0,0 UV-I 5 W/m 9,2 C 9,7 C 6,4 km/h (2 Bft)
24.09.2023 07:22 9,8 C 10,0 C 13,3 C 97 % 0 lf 1024,1 hPa 0,0 l/m 3,3 km/h (1 Bft) S-SW 200 0 min 0 min 0,000 mm 0,0 UV-I 2 W/m 9,3 C 9,8 C 8,0 km/h (2 Bft)
24.09.2023 07:20 9,8 C 10,0 C 13,3 C 97 % 0 lf 1024,0 hPa 0,0 l/m 3,7 km/h (1 Bft) S 185 0 min 0 min 0,000 mm 0,0 UV-I 0 W/m 9,3 C 9,8 C 8,0 km/h (2 Bft)
24.09.2023 07:18 9,8 C 10,0 C 13,3 C 97 % 0 lf 1024,0 hPa 0,0 l/m 2,8 km/h (1 Bft) S 180 0 min 0 min 0,000 mm 0,0 UV-I 0 W/m 9,3 C 9,8 C 6,4 km/h (2 Bft)
24.09.2023 07:16 9,8 C 10,0 C 13,3 C 98 % 0 lf 1024,0 hPa 0,0 l/m 5,5 km/h (2 Bft) S-SW 209 0 min 0 min 0,000 mm 0,0 UV-I 0 W/m 9,5 C 9,4 C 8,0 km/h (2 Bft)
24.09.2023 07:14 9,8 C 10,0 C 13,3 C 98 % 0 lf 1024,1 hPa 0,0 l/m 2,9 km/h (1 Bft) S-SW 208 0 min 0 min 0,000 mm 0,0 UV-I 0 W/m 9,5 C 9,8 C 6,4 km/h (2 Bft)
24.09.2023 07:12 9,9 C 10,0 C 13,3 C 98 % 0 lf 1023,9 hPa 0,0 l/m 4,8 km/h (1 Bft) SW 226 0 min 0 min 0,000 mm 0,0 UV-I 0 W/m 9,6 C 9,7 C 6,4 km/h (2 Bft)
24.09.2023 07:10 9,9 C 10,0 C 13,3 C 98 % 0 lf 1024,0 hPa 0,0 l/m 2,9 km/h (1 Bft) SW 232 0 min 0 min 0,000 mm 0,0 UV-I 0 W/m 9,6 C 9,9 C 6,4 km/h (2 Bft)
24.09.2023 07:08 9,9 C 10,0 C 13,3 C 98 % 0 lf 1023,9 hPa 0,0 l/m 3,5 km/h (1 Bft) S-SW 205 0 min 0 min 0,000 mm 0,0 UV-I 0 W/m 9,6 C 9,9 C 8,0 km/h (2 Bft)
24.09.2023 07:06 9,9 C 10,0 C 13,3 C 98 % 0 lf 1023,9 hPa 0,0 l/m 3,2 km/h (1 Bft) S-SW 199 0 min 0 min 0,000 mm 0,0 UV-I 0 W/m 9,6 C 9,9 C 8,0 km/h (2 Bft)
24.09.2023 07:04 9,9 C 10,0 C 13,3 C 97 % 0 lf 1023,9 hPa 0,0 l/m 3,9 km/h (1 Bft) S-SO 163 0 min 0 min 0,000 mm 0,0 UV-I 0 W/m 9,4 C 9,9 C 8,0 km/h (2 Bft)
24.09.2023 07:02 9,9 C 10,0 C 13,3 C 98 % 0 lf 1024,0 hPa 0,0 l/m 3,6 km/h (1 Bft) S 188 0 min 0 min 0,000 mm 0,0 UV-I 0 W/m 9,6 C 9,9 C 8,0 km/h (2 Bft)
24.09.2023 07:00 9,9 C 10,0 C 13,3 C 98 % 0 lf 1023,9 hPa 0,0 l/m 2,2 km/h (1 Bft) S-SW 199 0 min 0 min 0,000 mm 0,0 UV-I 0 W/m 9,6 C 9,9 C 6,4 km/h (2 Bft)
24.09.2023 06:58 10,0 C 10,0 C 13,3 C 98 % 0 lf 1023,9 hPa 0,0 l/m 3,1 km/h (1 Bft) S-SO 148 0 min 0 min 0,000 mm 0,0 UV-I 0 W/m 9,7 C 10,0 C 4,8 km/h (1 Bft)
24.09.2023 06:56 10,0 C 10,0 C 13,3 C 98 % 0 lf 1023,8 hPa 0,0 l/m 1,7 km/h (1 Bft) SO 139 0 min 0 min 0,000 mm 0,0 UV-I 0 W/m 9,7 C 10,0 C 3,2 km/h (1 Bft)
24.09.2023 06:54 10,0 C 10,0 C 13,3 C 97 % 0 lf 1023,9 hPa 0,0 l/m 2,1 km/h (1 Bft) SO 130 0 min 0 min 0,000 mm 0,0 UV-I 0 W/m 9,5 C 10,0 C 4,8 km/h (1 Bft)
24.09.2023 06:52 9,9 C 10,0 C 13,3 C 97 % 0 lf 1023,9 hPa 0,2 l/m 1,0 km/h (0 Bft) S 188 0 min 2 min 0,000 mm 0,0 UV-I 0 W/m 9,4 C 9,9 C 3,2 km/h (1 Bft)
24.09.2023 06:50 10,0 C 10,0 C 13,3 C 97 % 0 lf 1023,7 hPa 0,0 l/m 0,8 km/h (0 Bft) S 188 0 min 0 min 0,000 mm 0,0 UV-I 0 W/m 9,5 C 10,0 C 1,6 km/h (1 Bft)
24.09.2023 06:48 9,9 C 10,0 C 13,3 C 97 % 0 lf 1023,7 hPa 0,0 l/m 1,8 km/h (1 Bft) S 188 0 min 0 min 0,000 mm 0,0 UV-I 0 W/m 9,4 C 9,9 C 3,2 km/h (1 Bft)
24.09.2023 06:46 9,9 C 10,0 C 13,3 C 97 % 0 lf 1023,8 hPa 0,0 l/m 2,8 km/h (1 Bft) S-SW 196 0 min 0 min 0,000 mm 0,0 UV-I 0 W/m 9,4 C 9,9 C 8,0 km/h (2 Bft)
24.09.2023 06:44 9,9 C 10,0 C 13,3 C 97 % 0 lf 1023,8 hPa 0,0 l/m 1,3 km/h (1 Bft) S-SW 201 0 min 0 min 0,000 mm 0,0 UV-I 0 W/m 9,4 C 9,9 C 3,2 km/h (1 Bft)
24.09.2023 06:42 9,9 C 10,0 C 13,3 C 97 % 0 lf 1023,7 hPa 0,0 l/m 1,0 km/h (0 Bft) S 180 0 min 0 min 0,000 mm 0,0 UV-I 0 W/m 9,4 C 9,9 C 1,6 km/h (1 Bft)
24.09.2023 06:40 9,9 C 10,0 C 13,3 C 97 % 0 lf 1023,7 hPa 0,0 l/m 1,6 km/h (1 Bft) S 187 0 min 0 min 0,000 mm 0,0 UV-I 0 W/m 9,4 C 9,9 C 3,2 km/h (1 Bft)
24.09.2023 06:38 9,9 C 10,0 C 13,3 C 97 % 0 lf 1023,7 hPa 0,0 l/m 1,3 km/h (1 Bft) S-SW 210 0 min 0 min 0,000 mm 0,0 UV-I 0 W/m 9,4 C 9,9 C 3,2 km/h (1 Bft)
24.09.2023 06:36 9,9 C 10,0 C 13,3 C 97 % 0 lf 1023,7 hPa 0,0 l/m 1,7 km/h (1 Bft) SW 215 0 min 0 min 0,000 mm 0,0 UV-I 0 W/m 9,4 C 9,9 C 3,2 km/h (1 Bft)
24.09.2023 06:34 9,9 C 10,0 C 13,3 C 97 % 0 lf 1023,6 hPa 0,0 l/m 2,4 km/h (1 Bft) S 181 0 min 0 min 0,000 mm 0,0 UV-I 0 W/m 9,4 C 9,9 C 3,2 km/h (1 Bft)
24.09.2023 06:32 10,0 C 10,0 C 13,3 C 97 % 0 lf 1023,6 hPa 0,0 l/m 2,9 km/h (1 Bft) S 175 0 min 0 min 0,000 mm 0,0 UV-I 0 W/m 9,5 C 10,0 C 6,4 km/h (2 Bft)
24.09.2023 06:30 10,0 C 10,0 C 13,3 C 97 % 0 lf 1023,6 hPa 0,0 l/m 0,6 km/h (0 Bft) S 182 0 min 0 min 0,000 mm 0,0 UV-I 0 W/m 9,5 C 10,0 C 3,2 km/h (1 Bft)
24.09.2023 06:28 9,9 C 10,0 C 13,3 C 97 % 0 lf 1023,6 hPa 0,0 l/m 2,3 km/h (1 Bft) S-SW 194 0 min 0 min 0,000 mm 0,0 UV-I 0 W/m 9,4 C 9,9 C 4,8 km/h (1 Bft)
24.09.2023 06:26 9,9 C 10,0 C 13,3 C 97 % 0 lf 1023,6 hPa 0,0 l/m 1,7 km/h (1 Bft) S 189 0 min 0 min 0,000 mm 0,0 UV-I 0 W/m 9,4 C 9,9 C 6,4 km/h (2 Bft)
24.09.2023 06:24 9,9 C 10,0 C 13,3 C 97 % 0 lf 1023,6 hPa 0,0 l/m 1,2 km/h (1 Bft) S-SO 165 0 min 0 min 0,000 mm 0,0 UV-I 0 W/m 9,4 C 9,9 C 3,2 km/h (1 Bft)
24.09.2023 06:22 9,9 C 10,0 C 13,3 C 97 % 0 lf 1023,5 hPa 0,0 l/m 1,3 km/h (1 Bft) S 179 0 min 0 min 0,000 mm 0,0 UV-I 0 W/m 9,4 C 9,9 C 3,2 km/h (1 Bft)
24.09.2023 06:20 9,9 C 10,0 C 13,3 C 97 % 0 lf 1023,5 hPa 0,0 l/m 0,5 km/h (0 Bft) S-SW 211 0 min 0 min 0,000 mm 0,0 UV-I 0 W/m 9,4 C 9,9 C 1,6 km/h (1 Bft)
24.09.2023 06:18 10,0 C 10,0 C 13,3 C 97 % 0 lf 1023,5 hPa 0,0 l/m 1,7 km/h (1 Bft) S-SW 211 0 min 0 min 0,000 mm 0,0 UV-I 0 W/m 9,5 C 10,0 C 3,2 km/h (1 Bft)
24.09.2023 06:16 10,0 C 9,4 C 13,3 C 97 % 0 lf 1023,5 hPa 0,0 l/m 2,6 km/h (1 Bft) S-SW 201 0 min 0 min 0,000 mm 0,0 UV-I 0 W/m 9,5 C 10,0 C 3,2 km/h (1 Bft)
24.09.2023 06:14 10,0 C 9,4 C 13,3 C 97 % 0 lf 1023,5 hPa 0,0 l/m 2,5 km/h (1 Bft) SW 223 0 min 0 min 0,000 mm 0,0 UV-I 0 W/m 9,5 C 10,0 C 3,2 km/h (1 Bft)
24.09.2023 06:12 10,1 C 9,4 C 13,3 C 97 % 0 lf 1023,5 hPa 0,0 l/m 2,6 km/h (1 Bft) S-SW 199 0 min 0 min 0,000 mm 0,0 UV-I 0 W/m 9,6 C 10,1 C 6,4 km/h (2 Bft)
24.09.2023 06:10 10,1 C 9,4 C 13,3 C 97 % 0 lf 1023,4 hPa 0,0 l/m 2,5 km/h (1 Bft) S-SW 198 0 min 0 min 0,000 mm 0,0 UV-I 0 W/m 9,6 C 10,1 C 3,2 km/h (1 Bft)
24.09.2023 06:08 10,1 C 9,4 C 13,3 C 97 % 0 lf 1023,4 hPa 0,0 l/m 0,6 km/h (0 Bft) S-SW 198 0 min 0 min 0,000 mm 0,0 UV-I 0 W/m 9,6 C 10,1 C 3,2 km/h (1 Bft)
24.09.2023 06:06 10,1 C 9,4 C 13,3 C 97 % 0 lf 1023,4 hPa 0,0 l/m 0,9 km/h (0 Bft) S-SW 198 0 min 0 min 0,000 mm 0,0 UV-I 0 W/m 9,6 C 10,1 C 1,6 km/h (1 Bft)
24.09.2023 06:04 10,2 C 9,4 C 13,3 C 97 % 0 lf 1023,4 hPa 0,0 l/m 2,3 km/h (1 Bft) S-SW 198 0 min 0 min 0,000 mm 0,0 UV-I 0 W/m 9,7 C 10,2 C 3,2 km/h (1 Bft)
24.09.2023 06:02 10,2 C 9,4 C 13,3 C 97 % 0 lf 1023,4 hPa 0,0 l/m 3,0 km/h (1 Bft) S-SW 202 0 min 0 min 0,000 mm 0,0 UV-I 0 W/m 9,7 C 10,2 C 6,4 km/h (2 Bft)
24.09.2023 06:00 10,2 C 9,4 C 13,3 C 97 % 0 lf 1023,3 hPa 0,0 l/m 2,7 km/h (1 Bft) SW 215 0 min 0 min 0,000 mm 0,0 UV-I 0 W/m 9,7 C 10,2 C 6,4 km/h (2 Bft)
24.09.2023 05:58 10,2 C 9,4 C 13,3 C 97 % 0 lf 1023,3 hPa 0,0 l/m 2,7 km/h (1 Bft) S-SW 207 0 min 0 min 0,000 mm 0,0 UV-I 0 W/m 9,7 C 10,2 C 4,8 km/h (1 Bft)
24.09.2023 05:56 10,2 C 9,4 C 13,3 C 97 % 0 lf 1023,3 hPa 0,0 l/m 4,5 km/h (1 Bft) S 187 0 min 0 min 0,000 mm 0,0 UV-I 0 W/m 9,7 C 10,2 C 8,0 km/h (2 Bft)
24.09.2023 05:54 10,2 C 9,4 C 13,3 C 97 % 0 lf 1023,3 hPa 0,0 l/m 2,6 km/h (1 Bft) S 171 0 min 0 min 0,000 mm 0,0 UV-I 0 W/m 9,7 C 10,2 C 6,4 km/h (2 Bft)
24.09.2023 05:52 10,2 C 9,4 C 13,3 C 97 % 0 lf 1023,2 hPa 0,0 l/m 2,5 km/h (1 Bft) S-SW 209 0 min 0 min 0,000 mm 0,0 UV-I 0 W/m 9,7 C 10,2 C 3,2 km/h (1 Bft)
24.09.2023 05:50 10,2 C 9,4 C 13,3 C 97 % 0 lf 1023,2 hPa 0,0 l/m 1,5 km/h (1 Bft) S 188 0 min 0 min 0,000 mm 0,0 UV-I 0 W/m 9,7 C 10,2 C 3,2 km/h (1 Bft)
24.09.2023 05:48 10,3 C 9,4 C 13,3 C 97 % 0 lf 1023,2 hPa 0,0 l/m 3,5 km/h (1 Bft) S 184 0 min 0 min 0,000 mm 0,0 UV-I 0 W/m 9,8 C 10,3 C 8,0 km/h (2 Bft)
24.09.2023 05:46 10,3 C 9,4 C 13,3 C 97 % 0 lf 1023,3 hPa 0,0 l/m 1,8 km/h (1 Bft) S 184 0 min 0 min 0,000 mm 0,0 UV-I 0 W/m 9,8 C 10,3 C 3,2 km/h (1 Bft)
24.09.2023 05:44 10,3 C 9,4 C 13,3 C 97 % 0 lf 1023,2 hPa 0,0 l/m 1,9 km/h (1 Bft) S 184 0 min 0 min 0,000 mm 0,0 UV-I 0 W/m 9,8 C 10,3 C 3,2 km/h (1 Bft)
24.09.2023 05:42 10,3 C 9,4 C 13,3 C 97 % 0 lf 1023,2 hPa 0,0 l/m 4,1 km/h (1 Bft) S-SW 202 0 min 0 min 0,000 mm 0,0 UV-I 0 W/m 9,8 C 10,3 C 6,4 km/h (2 Bft)
24.09.2023 05:40 10,3 C 9,4 C 13,3 C 97 % 0 lf 1023,2 hPa 0,0 l/m 1,7 km/h (1 Bft) S 180 0 min 0 min 0,000 mm 0,0 UV-I 0 W/m 9,8 C 10,3 C 3,2 km/h (1 Bft)
24.09.2023 05:38 10,3 C 9,4 C 13,3 C 97 % 0 lf 1023,1 hPa 0,0 l/m 2,5 km/h (1 Bft) S 187 0 min 0 min 0,000 mm 0,0 UV-I 0 W/m 9,8 C 10,3 C 6,4 km/h (2 Bft)
24.09.2023 05:36 10,3 C 9,4 C 13,3 C 97 % 0 lf 1023,1 hPa 0,0 l/m 2,2 km/h (1 Bft) S-SW 201 0 min 0 min 0,000 mm 0,0 UV-I 0 W/m 9,8 C 10,3 C 3,2 km/h (1 Bft)
24.09.2023 05:34 10,3 C 9,4 C 13,3 C 97 % 0 lf 1023,1 hPa 0,0 l/m 2,4 km/h (1 Bft) S-SW 198 0 min 0 min 0,000 mm 0,0 UV-I 0 W/m 9,8 C 10,3 C 3,2 km/h (1 Bft)
24.09.2023 05:32 10,2 C 9,4 C 13,3 C 97 % 0 lf 1023,0 hPa 0,0 l/m 2,7 km/h (1 Bft) S-SW 197 0 min 0 min 0,000 mm 0,0 UV-I 0 W/m 9,7 C 10,2 C 4,8 km/h (1 Bft)
24.09.2023 05:30 10,2 C 9,4 C 13,3 C 98 % 0 lf 1023,0 hPa 0,0 l/m 3,0 km/h (1 Bft) S 171 0 min 0 min 0,000 mm 0,0 UV-I 0 W/m 9,9 C 10,2 C 4,8 km/h (1 Bft)
24.09.2023 05:28 10,1 C 9,4 C 13,3 C 97 % 0 lf 1023,1 hPa 0,0 l/m 2,5 km/h (1 Bft) SW 217 0 min 0 min 0,000 mm 0,0 UV-I 0 W/m 9,6 C 10,1 C 8,0 km/h (2 Bft)
24.09.2023 05:26 10,1 C 8,9 C 13,3 C 97 % 0 lf 1023,0 hPa 0,0 l/m 1,0 km/h (0 Bft) S-SW 209 0 min 0 min 0,000 mm 0,0 UV-I 0 W/m 9,6 C 10,1 C 1,6 km/h (1 Bft)
24.09.2023 05:24 9,9 C 8,9 C 13,3 C 97 % 0 lf 1022,9 hPa 0,0 l/m 2,1 km/h (1 Bft) S-SW 209 0 min 0 min 0,000 mm 0,0 UV-I 0 W/m 9,4 C 9,9 C 3,2 km/h (1 Bft)
24.09.2023 05:22 9,8 C 8,9 C 13,3 C 97 % 0 lf 1022,9 hPa 0,0 l/m 0,3 km/h (0 Bft) SW 216 0 min 0 min 0,000 mm 0,0 UV-I 0 W/m 9,3 C 9,8 C 1,6 km/h (1 Bft)
24.09.2023 05:20 9,8 C 8,9 C 13,3 C 97 % 0 lf 1022,9 hPa 0,0 l/m 0,6 km/h (0 Bft) SW 216 0 min 0 min 0,000 mm 0,0 UV-I 0 W/m 9,3 C 9,8 C 1,6 km/h (1 Bft)
24.09.2023 05:18 9,9 C 8,9 C 13,3 C 97 % 0 lf 1022,8 hPa 0,0 l/m 0,3 km/h (0 Bft) SW 216 0 min 0 min 0,000 mm 0,0 UV-I 0 W/m 9,4 C 9,9 C 1,6 km/h (1 Bft)
24.09.2023 05:16 9,9 C 8,9 C 13,3 C 97 % 0 lf 1022,8 hPa 0,0 l/m 0,1 km/h (0 Bft) SW 216 0 min 0 min 0,000 mm 0,0 UV-I 0 W/m 9,4 C 9,9 C 1,6 km/h (1 Bft)
24.09.2023 05:14 9,9 C 8,9 C 13,3 C 97 % 0 lf 1022,8 hPa 0,0 l/m 0,1 km/h (0 Bft) SW 216 0 min 0 min 0,000 mm 0,0 UV-I 0 W/m 9,4 C 9,9 C 1,6 km/h (1 Bft)
24.09.2023 05:12 9,9 C 8,9 C 13,3 C 97 % 0 lf 1022,7 hPa 0,0 l/m 0,3 km/h (0 Bft) SW 216 0 min 0 min 0,000 mm 0,0 UV-I 0 W/m 9,4 C 9,9 C 1,6 km/h (1 Bft)
24.09.2023 05:10 9,9 C 8,9 C 13,3 C 97 % 0 lf 1022,8 hPa 0,0 l/m 0,5 km/h (0 Bft) SW 216 0 min 0 min 0,000 mm 0,0 UV-I 0 W/m 9,4 C 9,9 C 1,6 km/h (1 Bft)
24.09.2023 05:08 9,8 C 8,9 C 13,3 C 97 % 0 lf 1022,8 hPa 0,0 l/m 0,7 km/h (0 Bft) SW 216 0 min 0 min 0,000 mm 0,0 UV-I 0 W/m 9,3 C 9,8 C 1,6 km/h (1 Bft)
24.09.2023 05:06 9,8 C 8,9 C 13,3 C 97 % 0 lf 1022,8 hPa 0,0 l/m 0,4 km/h (0 Bft) SW 216 0 min 0 min 0,000 mm 0,0 UV-I 0 W/m 9,3 C 9,8 C 1,6 km/h (1 Bft)
24.09.2023 05:04 9,8 C 8,3 C 13,3 C 97 % 0 lf 1022,8 hPa 0,0 l/m 0,1 km/h (0 Bft) SW 216 0 min 0 min 0,000 mm 0,0 UV-I 0 W/m 9,3 C 9,8 C 1,6 km/h (1 Bft)
24.09.2023 05:02 9,7 C 8,3 C 13,3 C 97 % 0 lf 1022,8 hPa 0,0 l/m 0,0 km/h (0 Bft) SW 216 0 min 0 min 0,000 mm 0,0 UV-I 0 W/m 9,2 C 9,7 C 0,0 km/h (0 Bft)
24.09.2023 05:00 9,7 C 8,3 C 13,3 C 97 % 0 lf 1022,7 hPa 0,0 l/m 0,0 km/h (0 Bft) SW 216 0 min 0 min 0,000 mm 0,0 UV-I 0 W/m 9,2 C 9,7 C 0,0 km/h (0 Bft)
24.09.2023 04:58 9,8 C 8,3 C 13,3 C 97 % 0 lf 1022,8 hPa 0,0 l/m 0,1 km/h (0 Bft) SW 216 0 min 0 min 0,000 mm 0,0 UV-I 0 W/m 9,3 C 9,8 C 1,6 km/h (1 Bft)
24.09.2023 04:56 9,8 C 7,8 C 13,3 C 97 % 0 lf 1022,8 hPa 0,0 l/m 0,2 km/h (0 Bft) SW 216 0 min 0 min 0,000 mm 0,0 UV-I 0 W/m 9,3 C 9,8 C 1,6 km/h (1 Bft)
24.09.2023 04:54 9,8 C 8,3 C 13,9 C 97 % 0 lf 1022,8 hPa 0,0 l/m 0,1 km/h (0 Bft) SW 216 0 min 0 min 0,000 mm 0,0 UV-I 0 W/m 9,3 C 9,8 C 1,6 km/h (1 Bft)
24.09.2023 04:52 9,9 C 8,3 C 13,9 C 97 % 0 lf 1022,8 hPa 0,0 l/m 0,4 km/h (0 Bft) SW 216 0 min 0 min 0,000 mm 0,0 UV-I 0 W/m 9,4 C 9,9 C 1,6 km/h (1 Bft)
24.09.2023 04:50 9,8 C 8,3 C 13,9 C 97 % 0 lf 1022,7 hPa 0,0 l/m 0,6 km/h (0 Bft) SW 216 0 min 0 min 0,000 mm 0,0 UV-I 0 W/m 9,3 C 9,8 C 1,6 km/h (1 Bft)
24.09.2023 04:48 9,8 C 8,3 C 13,9 C 97 % 0 lf 1022,8 hPa 0,0 l/m 1,2 km/h (1 Bft) SW 216 0 min 0 min 0,000 mm 0,0 UV-I 0 W/m 9,3 C 9,8 C 1,6 km/h (1 Bft)
24.09.2023 04:46 9,8 C 8,3 C 13,9 C 97 % 0 lf 1022,7 hPa 0,0 l/m 1,3 km/h (1 Bft) SW 216 0 min 0 min 0,000 mm 0,0 UV-I 0 W/m 9,3 C 9,8 C 3,2 km/h (1 Bft)
24.09.2023 04:44 9,7 C 8,3 C 13,9 C 97 % 0 lf 1022,7 hPa 0,0 l/m 0,4 km/h (0 Bft) SW 216 0 min 0 min 0,000 mm 0,0 UV-I 0 W/m 9,2 C 9,7 C 1,6 km/h (1 Bft)
24.09.2023 04:42 9,6 C 8,3 C 13,9 C 97 % 0 lf 1022,8 hPa 0,0 l/m 0,2 km/h (0 Bft) SW 216 0 min 0 min 0,000 mm 0,0 UV-I 0 W/m 9,1 C 9,6 C 1,6 km/h (1 Bft)
24.09.2023 04:40 9,5 C 8,3 C 13,9 C 97 % 0 lf 1022,7 hPa 0,0 l/m 0,6 km/h (0 Bft) SW 216 0 min 0 min 0,000 mm 0,0 UV-I 0 W/m 9,0 C 9,5 C 1,6 km/h (1 Bft)
24.09.2023 04:38 9,7 C 8,3 C 13,9 C 97 % 0 lf 1022,7 hPa 0,0 l/m 0,3 km/h (0 Bft) SW 216 0 min 0 min 0,000 mm 0,0 UV-I 0 W/m 9,2 C 9,7 C 1,6 km/h (1 Bft)
24.09.2023 04:36 9,7 C 8,3 C 13,9 C 97 % 0 lf 1022,7 hPa 0,0 l/m 0,0 km/h (0 Bft) SW 216 0 min 0 min 0,000 mm 0,0 UV-I 0 W/m 9,2 C 9,7 C 0,0 km/h (0 Bft)
24.09.2023 04:34 9,8 C 8,3 C 13,9 C 97 % 0 lf 1022,7 hPa 0,0 l/m 0,3 km/h (0 Bft) SW 216 0 min 0 min 0,000 mm 0,0 UV-I 0 W/m 9,3 C 9,8 C 1,6 km/h (1 Bft)
24.09.2023 04:32 9,9 C 8,3 C 13,9 C 97 % 0 lf 1022,6 hPa 0,0 l/m 0,2 km/h (0 Bft) SW 216 0 min 0 min 0,000 mm 0,0 UV-I 0 W/m 9,4 C 9,9 C 1,6 km/h (1 Bft)
24.09.2023 04:30 9,9 C 8,3 C 13,9 C 97 % 0 lf 1022,7 hPa 0,0 l/m 0,9 km/h (0 Bft) SW 216 0 min 0 min 0,000 mm 0,0 UV-I 0 W/m 9,4 C 9,9 C 1,6 km/h (1 Bft)
24.09.2023 04:28 9,8 C 8,3 C 13,9 C 97 % 0 lf 1022,6 hPa 0,0 l/m 0,4 km/h (0 Bft) SW 216 0 min 0 min 0,000 mm 0,0 UV-I 0 W/m 9,3 C 9,8 C 1,6 km/h (1 Bft)
24.09.2023 04:26 9,8 C 8,3 C 13,9 C 97 % 0 lf 1022,5 hPa 0,0 l/m 0,2 km/h (0 Bft) SW 216 0 min 0 min 0,000 mm 0,0 UV-I 0 W/m 9,3 C 9,8 C 1,6 km/h (1 Bft)
24.09.2023 04:24 9,8 C 8,3 C 13,9 C 97 % 0 lf 1022,6 hPa 0,0 l/m 0,3 km/h (0 Bft) SW 216 0 min 0 min 0,000 mm 0,0 UV-I 0 W/m 9,3 C 9,8 C 1,6 km/h (1 Bft)
24.09.2023 04:22 9,8 C 8,3 C 13,9 C 97 % 0 lf 1022,5 hPa 0,0 l/m 0,2 km/h (0 Bft) SW 216 0 min 0 min 0,000 mm 0,0 UV-I 0 W/m 9,3 C 9,8 C 1,6 km/h (1 Bft)
24.09.2023 04:20 9,8 C 8,3 C 13,9 C 97 % 0 lf 1022,5 hPa 0,0 l/m 1,1 km/h (1 Bft) SW 216 0 min 0 min 0,000 mm 0,0 UV-I 0 W/m 9,3 C 9,8 C 1,6 km/h (1 Bft)
24.09.2023 04:18 10,0 C 8,3 C 13,9 C 97 % 0 lf 1022,4 hPa 0,0 l/m 0,6 km/h (0 Bft) SW 216 0 min 0 min 0,000 mm 0,0 UV-I 0 W/m 9,5 C 10,0 C 1,6 km/h (1 Bft)
24.09.2023 04:16 10,0 C 8,3 C 13,9 C 97 % 0 lf 1022,4 hPa 0,0 l/m 1,0 km/h (0 Bft) SW 216 0 min 0 min 0,000 mm 0,0 UV-I 0 W/m 9,5 C 10,0 C 1,6 km/h (1 Bft)
24.09.2023 04:14 10,0 C 8,3 C 13,9 C 97 % 0 lf 1022,4 hPa 0,0 l/m 0,7 km/h (0 Bft) SW 216 0 min 0 min 0,000 mm 0,0 UV-I 0 W/m 9,5 C 10,0 C 1,6 km/h (1 Bft)
24.09.2023 04:12 10,0 C 8,3 C 13,9 C 97 % 0 lf 1022,4 hPa 0,0 l/m 0,5 km/h (0 Bft) SW 216 0 min 0 min 0,000 mm 0,0 UV-I 0 W/m 9,5 C 10,0 C 1,6 km/h (1 Bft)
24.09.2023 04:10 10,0 C 8,3 C 13,9 C 97 % 0 lf 1022,3 hPa 0,0 l/m 0,3 km/h (0 Bft) SW 216 0 min 0 min 0,000 mm 0,0 UV-I 0 W/m 9,5 C 10,0 C 1,6 km/h (1 Bft)
24.09.2023 04:08 9,9 C 8,3 C 13,9 C 97 % 0 lf 1022,4 hPa 0,0 l/m 0,0 km/h (0 Bft) S-SW 209 0 min 0 min 0,000 mm 0,0 UV-I 0 W/m 9,4 C 9,9 C 0,0 km/h (0 Bft)
24.09.2023 04:06 9,9 C 8,3 C 13,9 C 97 % 0 lf 1022,2 hPa 0,0 l/m 0,0 km/h (0 Bft) S-SW 209 0 min 0 min 0,000 mm 0,0 UV-I 0 W/m 9,4 C 9,9 C 0,0 km/h (0 Bft)
24.09.2023 04:04 9,9 C 8,3 C 13,9 C 97 % 0 lf 1022,4 hPa 0,0 l/m 0,0 km/h (0 Bft) S-SW 209 0 min 0 min 0,000 mm 0,0 UV-I 0 W/m 9,4 C 9,9 C 0,0 km/h (0 Bft)
24.09.2023 04:02 9,9 C 8,3 C 13,9 C 97 % 0 lf 1022,3 hPa 0,0 l/m 0,0 km/h (0 Bft) S-SW 209 0 min 0 min 0,000 mm 0,0 UV-I 0 W/m 9,4 C 9,9 C 0,0 km/h (0 Bft)
24.09.2023 04:00 9,9 C 8,3 C 13,9 C 97 % 0 lf 1022,4 hPa 0,0 l/m 0,4 km/h (0 Bft) S-SW 209 0 min 0 min 0,000 mm 0,0 UV-I 0 W/m 9,4 C 9,9 C 1,6 km/h (1 Bft)
24.09.2023 03:58 9,9 C 8,9 C 13,9 C 97 % 0 lf 1022,4 hPa 0,0 l/m 0,8 km/h (0 Bft) S-SW 209 0 min 0 min 0,000 mm 0,0 UV-I 0 W/m 9,4 C 9,9 C 1,6 km/h (1 Bft)
24.09.2023 03:56 9,9 C 8,9 C 13,9 C 97 % 0 lf 1022,4 hPa 0,0 l/m 0,4 km/h (0 Bft) S-SW 209 0 min 0 min 0,000 mm 0,0 UV-I 0 W/m 9,4 C 9,9 C 1,6 km/h (1 Bft)
24.09.2023 03:54 9,9 C 8,9 C 13,9 C 96 % 0 lf 1022,4 hPa 0,0 l/m 0,7 km/h (0 Bft) S-SW 209 0 min 0 min 0,000 mm 0,0 UV-I 0 W/m 9,3 C 9,9 C 1,6 km/h (1 Bft)
24.09.2023 03:52 9,9 C 8,9 C 13,9 C 97 % 0 lf 1022,4 hPa 0,0 l/m 0,4 km/h (0 Bft) S-SW 209 0 min 0 min 0,000 mm 0,0 UV-I 0 W/m 9,4 C 9,9 C 1,6 km/h (1 Bft)
24.09.2023 03:50 10,1 C 8,9 C 13,9 C 97 % 0 lf 1022,4 hPa 0,0 l/m 0,0 km/h (0 Bft) S-SW 209 0 min 0 min 0,000 mm 0,0 UV-I 0 W/m 9,6 C 10,1 C 0,0 km/h (0 Bft)
24.09.2023 03:48 10,1 C 8,9 C 13,9 C 97 % 0 lf 1022,3 hPa 0,0 l/m 0,0 km/h (0 Bft) S-SW 209 0 min 0 min 0,000 mm 0,0 UV-I 0 W/m 9,6 C 10,1 C 0,0 km/h (0 Bft)
24.09.2023 03:46 10,2 C 8,9 C 13,9 C 97 % 0 lf 1022,3 hPa 0,0 l/m 0,3 km/h (0 Bft) S-SW 209 0 min 0 min 0,000 mm 0,0 UV-I 0 W/m 9,7 C 10,2 C 1,6 km/h (1 Bft)
24.09.2023 03:44 10,4 C 8,9 C 13,9 C 97 % 0 lf 1022,3 hPa 0,0 l/m 0,8 km/h (0 Bft) S-SW 209 0 min 0 min 0,000 mm 0,0 UV-I 0 W/m 9,9 C 10,4 C 1,6 km/h (1 Bft)
24.09.2023 03:42 10,4 C 9,4 C 13,9 C 97 % 0 lf 1022,2 hPa 0,0 l/m 0,9 km/h (0 Bft) S-SW 209 0 min 0 min 0,000 mm 0,0 UV-I 0 W/m 9,9 C 10,4 C 1,6 km/h (1 Bft)
24.09.2023 03:40 10,4 C 9,4 C 13,9 C 97 % 0 lf 1022,2 hPa 0,0 l/m 1,2 km/h (1 Bft) S-SW 209 0 min 0 min 0,000 mm 0,0 UV-I 0 W/m 9,9 C 10,4 C 1,6 km/h (1 Bft)
24.09.2023 03:38 10,4 C 9,4 C 13,9 C 97 % 0 lf 1022,2 hPa 0,0 l/m 2,0 km/h (1 Bft) S-SW 209 0 min 0 min 0,000 mm 0,0 UV-I 0 W/m 9,9 C 10,4 C 3,2 km/h (1 Bft)
24.09.2023 03:36 10,4 C 9,4 C 13,9 C 97 % 0 lf 1022,1 hPa 0,0 l/m 1,3 km/h (1 Bft) S-SW 196 0 min 0 min 0,000 mm 0,0 UV-I 0 W/m 9,9 C 10,4 C 3,2 km/h (1 Bft)
24.09.2023 03:34 10,3 C 9,4 C 13,9 C 97 % 0 lf 1022,1 hPa 0,0 l/m 0,7 km/h (0 Bft) S-SW 196 0 min 0 min 0,000 mm 0,0 UV-I 0 W/m 9,8 C 10,3 C 1,6 km/h (1 Bft)
24.09.2023 03:32 10,3 C 9,4 C 13,9 C 97 % 0 lf 1022,1 hPa 0,0 l/m 1,0 km/h (0 Bft) S-SW 196 0 min 0 min 0,000 mm 0,0 UV-I 0 W/m 9,8 C 10,3 C 1,6 km/h (1 Bft)
24.09.2023 03:30 10,3 C 9,4 C 13,9 C 97 % 0 lf 1022,0 hPa 0,0 l/m 0,4 km/h (0 Bft) S-SW 196 0 min 0 min 0,000 mm 0,0 UV-I 0 W/m 9,8 C 10,3 C 1,6 km/h (1 Bft)
24.09.2023 03:28 10,3 C 9,4 C 13,9 C 97 % 0 lf 1022,1 hPa 0,0 l/m 0,5 km/h (0 Bft) S-SW 196 0 min 0 min 0,000 mm 0,0 UV-I 0 W/m 9,8 C 10,3 C 1,6 km/h (1 Bft)
24.09.2023 03:26 10,4 C 9,4 C 13,9 C 96 % 0 lf 1022,1 hPa 0,0 l/m 0,3 km/h (0 Bft) S-SW 196 0 min 0 min 0,000 mm 0,0 UV-I 0 W/m 9,8 C 10,4 C 1,6 km/h (1 Bft)
24.09.2023 03:24 10,6 C 10,0 C 13,9 C 97 % 0 lf 1022,1 hPa 0,0 l/m 0,7 km/h (0 Bft) S-SW 196 0 min 0 min 0,000 mm 0,0 UV-I 0 W/m 10,1 C 10,6 C 1,6 km/h (1 Bft)
24.09.2023 03:22 10,6 C 10,0 C 13,9 C 97 % 0 lf 1022,0 hPa 0,0 l/m 1,1 km/h (1 Bft) S-SW 196 0 min 0 min 0,000 mm 0,0 UV-I 0 W/m 10,1 C 10,6 C 3,2 km/h (1 Bft)
24.09.2023 03:20 10,7 C 10,0 C 13,9 C 97 % 0 lf 1022,1 hPa 0,0 l/m 1,8 km/h (1 Bft) S-SW 196 0 min 0 min 0,000 mm 0,0 UV-I 0 W/m 10,2 C 10,7 C 3,2 km/h (1 Bft)
24.09.2023 03:18 10,7 C 10,0 C 13,9 C 97 % 0 lf 1022,0 hPa 0,0 l/m 2,1 km/h (1 Bft) S-SW 199 0 min 0 min 0,000 mm 0,0 UV-I 0 W/m 10,2 C 10,7 C 3,2 km/h (1 Bft)
24.09.2023 03:16 10,7 C 10,0 C 13,9 C 97 % 0 lf 1022,0 hPa 0,0 l/m 2,3 km/h (1 Bft) S-SW 205 0 min 0 min 0,000 mm 0,0 UV-I 0 W/m 10,2 C 10,7 C 3,2 km/h (1 Bft)
24.09.2023 03:14 10,7 C 10,0 C 13,9 C 97 % 0 lf 1022,0 hPa 0,0 l/m 1,5 km/h (1 Bft) SW 228 0 min 0 min 0,000 mm 0,0 UV-I 0 W/m 10,2 C 10,7 C 3,2 km/h (1 Bft)
24.09.2023 03:12 10,7 C 10,0 C 13,9 C 97 % 0 lf 1022,0 hPa 0,0 l/m 1,1 km/h (1 Bft) S 186 0 min 0 min 0,000 mm 0,0 UV-I 0 W/m 10,2 C 10,7 C 1,6 km/h (1 Bft)
24.09.2023 03:10 10,8 C 10,0 C 13,9 C 97 % 0 lf 1022,0 hPa 0,0 l/m 1,2 km/h (1 Bft) S 186 0 min 0 min 0,000 mm 0,0 UV-I 0 W/m 10,3 C 10,8 C 1,6 km/h (1 Bft)
24.09.2023 03:08 10,8 C 10,0 C 13,9 C 97 % 0 lf 1022,1 hPa 0,0 l/m 0,6 km/h (0 Bft) S 186 0 min 0 min 0,000 mm 0,0 UV-I 0 W/m 10,3 C 10,8 C 1,6 km/h (1 Bft)
24.09.2023 03:06 10,8 C 10,0 C 13,9 C 97 % 0 lf 1022,0 hPa 0,0 l/m 2,1 km/h (1 Bft) S 186 0 min 0 min 0,000 mm 0,0 UV-I 0 W/m 10,3 C 10,8 C 3,2 km/h (1 Bft)
24.09.2023 03:04 10,8 C 10,0 C 13,9 C 97 % 0 lf 1022,0 hPa 0,0 l/m 1,3 km/h (1 Bft) S 186 0 min 0 min 0,000 mm 0,0 UV-I 0 W/m 10,3 C 10,8 C 3,2 km/h (1 Bft)
24.09.2023 03:02 10,8 C 10,0 C 13,9 C 97 % 0 lf 1022,0 hPa 0,0 l/m 1,9 km/h (1 Bft) S 186 0 min 0 min 0,000 mm 0,0 UV-I 0 W/m 10,3 C 10,8 C 3,2 km/h (1 Bft)
24.09.2023 03:00 10,8 C 10,0 C 13,9 C 97 % 0 lf 1021,9 hPa 0,0 l/m 1,5 km/h (1 Bft) S 188 0 min 0 min 0,000 mm 0,0 UV-I 0 W/m 10,3 C 10,8 C 3,2 km/h (1 Bft)
24.09.2023 02:58 10,9 C 10,0 C 13,9 C 97 % 0 lf 1021,9 hPa 0,0 l/m 1,1 km/h (1 Bft) S-SW 196 0 min 0 min 0,000 mm 0,0 UV-I 0 W/m 10,4 C 10,9 C 3,2 km/h (1 Bft)
24.09.2023 02:56 10,9 C 10,0 C 13,9 C 97 % 0 lf 1021,9 hPa 0,0 l/m 1,2 km/h (1 Bft) S-SW 196 0 min 0 min 0,000 mm 0,0 UV-I 0 W/m 10,4 C 10,9 C 3,2 km/h (1 Bft)
24.09.2023 02:54 10,9 C 10,0 C 14,4 C 96 % 0 lf 1021,9 hPa 0,0 l/m 1,4 km/h (1 Bft) S-SW 198 0 min 0 min 0,000 mm 0,0 UV-I 0 W/m 10,3 C 10,9 C 3,2 km/h (1 Bft)
24.09.2023 02:52 11,0 C 10,6 C 14,4 C 96 % 0 lf 1021,9 hPa 0,0 l/m 0,4 km/h (0 Bft) S-SW 202 0 min 0 min 0,000 mm 0,0 UV-I 0 W/m 10,4 C 11,0 C 1,6 km/h (1 Bft)
24.09.2023 02:50 11,0 C 10,6 C 14,4 C 96 % 0 lf 1021,9 hPa 0,0 l/m 1,0 km/h (0 Bft) S-SW 202 0 min 0 min 0,000 mm 0,0 UV-I 0 W/m 10,4 C 11,0 C 1,6 km/h (1 Bft)
24.09.2023 02:48 11,0 C 10,0 C 14,4 C 97 % 0 lf 1021,8 hPa 0,0 l/m 1,8 km/h (1 Bft) S-SW 198 0 min 0 min 0,000 mm 0,0 UV-I 0 W/m 10,5 C 11,0 C 3,2 km/h (1 Bft)
24.09.2023 02:46 11,1 C 10,0 C 14,4 C 97 % 0 lf 1021,8 hPa 0,0 l/m 1,9 km/h (1 Bft) S 186 0 min 0 min 0,000 mm 0,0 UV-I 0 W/m 10,6 C 11,1 C 3,2 km/h (1 Bft)
24.09.2023 02:44 11,1 C 10,0 C 14,4 C 97 % 0 lf 1021,7 hPa 0,0 l/m 1,8 km/h (1 Bft) S-SW 201 0 min 0 min 0,000 mm 0,0 UV-I 0 W/m 10,6 C 11,1 C 3,2 km/h (1 Bft)
24.09.2023 02:42 11,1 C 10,6 C 14,4 C 97 % 0 lf 1021,8 hPa 0,0 l/m 0,6 km/h (0 Bft) W 275 0 min 0 min 0,000 mm 0,0 UV-I 0 W/m 10,6 C 11,1 C 1,6 km/h (1 Bft)
24.09.2023 02:40 11,2 C 10,6 C 14,4 C 97 % 0 lf 1021,7 hPa 0,0 l/m 0,5 km/h (0 Bft) S-SW 203 0 min 0 min 0,000 mm 0,0 UV-I 0 W/m 10,7 C 11,2 C 1,6 km/h (1 Bft)
24.09.2023 02:38 11,2 C 11,1 C 14,4 C 97 % 0 lf 1021,7 hPa 0,0 l/m 1,0 km/h (0 Bft) S-SW 203 0 min 0 min 0,000 mm 0,0 UV-I 0 W/m 10,7 C 11,2 C 1,6 km/h (1 Bft)
24.09.2023 02:36 11,2 C 11,1 C 14,4 C 96 % 0 lf 1021,7 hPa 0,0 l/m 1,9 km/h (1 Bft) S-SW 203 0 min 0 min 0,000 mm 0,0 UV-I 0 W/m 10,6 C 11,2 C 3,2 km/h (1 Bft)
24.09.2023 02:34 11,2 C 11,1 C 14,4 C 96 % 0 lf 1021,7 hPa 0,0 l/m 1,5 km/h (1 Bft) SW 223 0 min 0 min 0,000 mm 0,0 UV-I 0 W/m 10,6 C 11,2 C 3,2 km/h (1 Bft)
24.09.2023 02:32 11,2 C 11,1 C 14,4 C 96 % 0 lf 1021,7 hPa 0,0 l/m 3,0 km/h (1 Bft) SW 225 0 min 0 min 0,000 mm 0,0 UV-I 0 W/m 10,6 C 11,2 C 6,4 km/h (2 Bft)
24.09.2023 02:30 11,3 C 11,1 C 14,4 C 96 % 0 lf 1021,6 hPa 0,0 l/m 1,7 km/h (1 Bft) SW 215 0 min 0 min 0,000 mm 0,0 UV-I 0 W/m 10,7 C 11,3 C 3,2 km/h (1 Bft)
24.09.2023 02:28 11,3 C 11,1 C 14,4 C 96 % 0 lf 1021,7 hPa 0,0 l/m 2,2 km/h (1 Bft) S 177 0 min 0 min 0,000 mm 0,0 UV-I 0 W/m 10,7 C 11,3 C 4,8 km/h (1 Bft)
24.09.2023 02:26 11,3 C 11,1 C 14,4 C 96 % 0 lf 1021,6 hPa 0,0 l/m 1,4 km/h (1 Bft) SW 235 0 min 0 min 0,000 mm 0,0 UV-I 0 W/m 10,7 C 11,3 C 3,2 km/h (1 Bft)
24.09.2023 02:24 11,3 C 11,1 C 14,4 C 96 % 0 lf 1021,7 hPa 0,0 l/m 3,0 km/h (1 Bft) SW 214 0 min 0 min 0,000 mm 0,0 UV-I 0 W/m 10,7 C 11,3 C 6,4 km/h (2 Bft)
24.09.2023 02:22 11,3 C 11,1 C 14,4 C 96 % 0 lf 1021,6 hPa 0,0 l/m 3,5 km/h (1 Bft) SW 214 0 min 0 min 0,000 mm 0,0 UV-I 0 W/m 10,7 C 11,3 C 6,4 km/h (2 Bft)
24.09.2023 02:20 11,3 C 11,1 C 14,4 C 96 % 0 lf 1021,7 hPa 0,0 l/m 2,2 km/h (1 Bft) S-SW 197 0 min 0 min 0,000 mm 0,0 UV-I 0 W/m 10,7 C 11,3 C 4,8 km/h (1 Bft)
24.09.2023 02:18 11,3 C 11,1 C 14,4 C 97 % 0 lf 1021,6 hPa 0,0 l/m 1,9 km/h (1 Bft) S-SW 200 0 min 0 min 0,000 mm 0,0 UV-I 0 W/m 10,8 C 11,3 C 4,8 km/h (1 Bft)
24.09.2023 02:16 11,3 C 11,1 C 14,4 C 97 % 0 lf 1021,5 hPa 0,0 l/m 2,0 km/h (1 Bft) SW 228 0 min 0 min 0,000 mm 0,0 UV-I 0 W/m 10,8 C 11,3 C 3,2 km/h (1 Bft)
24.09.2023 02:14 11,3 C 10,6 C 14,4 C 97 % 0 lf 1021,5 hPa 0,0 l/m 1,6 km/h (1 Bft) S 180 0 min 0 min 0,000 mm 0,0 UV-I 0 W/m 10,8 C 11,3 C 4,8 km/h (1 Bft)
24.09.2023 02:12 11,3 C 10,6 C 14,4 C 97 % 0 lf 1021,5 hPa 0,0 l/m 2,7 km/h (1 Bft) S-SW 202 0 min 0 min 0,000 mm 0,0 UV-I 0 W/m 10,8 C 11,3 C 6,4 km/h (2 Bft)
24.09.2023 02:10 11,3 C 10,6 C 14,4 C 96 % 0 lf 1021,5 hPa 0,0 l/m 2,0 km/h (1 Bft) S-SW 207 0 min 0 min 0,000 mm 0,0 UV-I 0 W/m 10,7 C 11,3 C 4,8 km/h (1 Bft)
24.09.2023 02:08 11,3 C 10,6 C 14,4 C 96 % 0 lf 1021,5 hPa 0,0 l/m 2,0 km/h (1 Bft) S-SW 204 0 min 0 min 0,000 mm 0,0 UV-I 0 W/m 10,7 C 11,3 C 3,2 km/h (1 Bft)
24.09.2023 02:06 11,3 C 10,6 C 14,4 C 97 % 0 lf 1021,4 hPa 0,0 l/m 1,6 km/h (1 Bft) S-SW 212 0 min 0 min 0,000 mm 0,0 UV-I 0 W/m 10,8 C 11,3 C 3,2 km/h (1 Bft)
24.09.2023 02:04 11,3 C 10,6 C 14,4 C 96 % 0 lf 1021,4 hPa 0,0 l/m 2,0 km/h (1 Bft) S-SW 208 0 min 0 min 0,000 mm 0,0 UV-I 0 W/m 10,7 C 11,3 C 3,2 km/h (1 Bft)
24.09.2023 02:02 11,4 C 10,6 C 14,4 C 96 % 0 lf 1021,4 hPa 0,0 l/m 2,0 km/h (1 Bft) S-SW 208 0 min 0 min 0,000 mm 0,0 UV-I 0 W/m 10,8 C 11,4 C 3,2 km/h (1 Bft)
24.09.2023 02:00 11,3 C 10,6 C 14,4 C 96 % 0 lf 1021,4 hPa 0,0 l/m 1,1 km/h (1 Bft) S-SW 212 0 min 0 min 0,000 mm 0,0 UV-I 0 W/m 10,7 C 11,3 C 1,6 km/h (1 Bft)
24.09.2023 01:58 11,4 C 10,6 C 14,4 C 96 % 0 lf 1021,4 hPa 0,0 l/m 0,8 km/h (0 Bft) S-SW 212 0 min 0 min 0,000 mm 0,0 UV-I 0 W/m 10,8 C 11,4 C 1,6 km/h (1 Bft)
24.09.2023 01:56 11,4 C 10,6 C 14,4 C 96 % 0 lf 1021,4 hPa 0,0 l/m 0,9 km/h (0 Bft) S-SW 213 0 min 0 min 0,000 mm 0,0 UV-I 0 W/m 10,8 C 11,4 C 3,2 km/h (1 Bft)
24.09.2023 01:54 11,4 C 10,6 C 14,4 C 96 % 0 lf 1021,4 hPa 0,0 l/m 1,2 km/h (1 Bft) S-SW 213 0 min 0 min 0,000 mm 0,0 UV-I 0 W/m 10,8 C 11,4 C 1,6 km/h (1 Bft)
24.09.2023 01:52 11,4 C 10,6 C 14,4 C 96 % 0 lf 1021,3 hPa 0,0 l/m 1,0 km/h (0 Bft) S-SW 198 0 min 0 min 0,000 mm 0,0 UV-I 0 W/m 10,8 C 11,4 C 3,2 km/h (1 Bft)
24.09.2023 01:50 11,3 C 10,6 C 14,4 C 96 % 0 lf 1021,3 hPa 0,0 l/m 0,6 km/h (0 Bft) S-SW 211 0 min 0 min 0,000 mm 0,0 UV-I 0 W/m 10,7 C 11,3 C 1,6 km/h (1 Bft)
24.09.2023 01:48 11,4 C 10,6 C 14,4 C 96 % 0 lf 1021,3 hPa 0,0 l/m 0,2 km/h (0 Bft) S-SW 211 0 min 0 min 0,000 mm 0,0 UV-I 0 W/m 10,8 C 11,4 C 1,6 km/h (1 Bft)
24.09.2023 01:46 11,4 C 10,6 C 14,4 C 96 % 0 lf 1021,4 hPa 0,0 l/m 0,2 km/h (0 Bft) S-SW 211 0 min 0 min 0,000 mm 0,0 UV-I 0 W/m 10,8 C 11,4 C 3,2 km/h (1 Bft)
24.09.2023 01:44 11,4 C 10,6 C 14,4 C 96 % 0 lf 1021,3 hPa 0,0 l/m 0,6 km/h (0 Bft) S-SW 211 0 min 0 min 0,000 mm 0,0 UV-I 0 W/m 10,8 C 11,4 C 1,6 km/h (1 Bft)
24.09.2023 01:42 11,4 C 11,1 C 14,4 C 96 % 0 lf 1021,3 hPa 0,0 l/m 0,2 km/h (0 Bft) S-SW 210 0 min 0 min 0,000 mm 0,0 UV-I 0 W/m 10,8 C 11,4 C 1,6 km/h (1 Bft)
24.09.2023 01:40 11,5 C 11,1 C 14,4 C 96 % 0 lf 1021,3 hPa 0,0 l/m 1,2 km/h (1 Bft) S-SW 210 0 min 0 min 0,000 mm 0,0 UV-I 0 W/m 10,9 C 11,5 C 3,2 km/h (1 Bft)
24.09.2023 01:38 11,5 C 11,1 C 14,4 C 96 % 0 lf 1021,2 hPa 0,0 l/m 1,4 km/h (1 Bft) S-SW 210 0 min 0 min 0,000 mm 0,0 UV-I 0 W/m 10,9 C 11,5 C 3,2 km/h (1 Bft)
24.09.2023 01:36 11,5 C 11,1 C 14,4 C 96 % 0 lf 1021,2 hPa 0,0 l/m 1,7 km/h (1 Bft) S-SW 204 0 min 0 min 0,000 mm 0,0 UV-I 0 W/m 10,9 C 11,5 C 3,2 km/h (1 Bft)
24.09.2023 01:34 11,6 C 11,7 C 14,4 C 96 % 0 lf 1021,2 hPa 0,0 l/m 1,5 km/h (1 Bft) S-SW 205 0 min 0 min 0,000 mm 0,0 UV-I 0 W/m 11,0 C 11,6 C 3,2 km/h (1 Bft)
24.09.2023 01:32 11,6 C 11,7 C 14,4 C 96 % 0 lf 1021,1 hPa 0,0 l/m 1,5 km/h (1 Bft) S-SW 207 0 min 0 min 0,000 mm 0,0 UV-I 0 W/m 11,0 C 11,6 C 3,2 km/h (1 Bft)
24.09.2023 01:30 11,6 C 11,7 C 14,4 C 96 % 0 lf 1021,2 hPa 0,0 l/m 1,5 km/h (1 Bft) SW 216 0 min 0 min 0,000 mm 0,0 UV-I 0 W/m 11,0 C 11,6 C 3,2 km/h (1 Bft)
24.09.2023 01:28 11,6 C 11,7 C 14,4 C 96 % 0 lf 1021,1 hPa 0,0 l/m 2,7 km/h (1 Bft) S-SW 205 0 min 0 min 0,000 mm 0,0 UV-I 0 W/m 11,0 C 11,6 C 6,4 km/h (2 Bft)
24.09.2023 01:26 11,6 C 11,7 C 14,4 C 96 % 0 lf 1021,1 hPa 0,0 l/m 1,6 km/h (1 Bft) S-SW 204 0 min 0 min 0,000 mm 0,0 UV-I 0 W/m 11,0 C 11,6 C 3,2 km/h (1 Bft)
24.09.2023 01:24 11,7 C 11,7 C 14,4 C 96 % 0 lf 1021,1 hPa 0,0 l/m 1,6 km/h (1 Bft) SW 215 0 min 0 min 0,000 mm 0,0 UV-I 0 W/m 11,1 C 11,7 C 3,2 km/h (1 Bft)
24.09.2023 01:22 11,7 C 11,7 C 14,4 C 96 % 0 lf 1021,1 hPa 0,0 l/m 1,2 km/h (1 Bft) SW 223 0 min 0 min 0,000 mm 0,0 UV-I 0 W/m 11,1 C 11,7 C 1,6 km/h (1 Bft)
24.09.2023 01:20 11,7 C 11,7 C 14,4 C 96 % 0 lf 1021,1 hPa 0,0 l/m 1,8 km/h (1 Bft) SW 214 0 min 0 min 0,000 mm 0,0 UV-I 0 W/m 11,1 C 11,7 C 3,2 km/h (1 Bft)
24.09.2023 01:18 11,7 C 11,7 C 14,4 C 96 % 0 lf 1021,1 hPa 0,0 l/m 1,7 km/h (1 Bft) SW 215 0 min 0 min 0,000 mm 0,0 UV-I 0 W/m 11,1 C 11,7 C 6,4 km/h (2 Bft)
24.09.2023 01:16 11,8 C 11,7 C 14,4 C 96 % 0 lf 1021,1 hPa 0,0 l/m 1,9 km/h (1 Bft) SW 223 0 min 0 min 0,000 mm 0,0 UV-I 0 W/m 11,2 C 11,8 C 3,2 km/h (1 Bft)
24.09.2023 01:14 11,8 C 11,7 C 14,4 C 96 % 0 lf 1021,1 hPa 0,0 l/m 3,7 km/h (1 Bft) SW 232 0 min 0 min 0,000 mm 0,0 UV-I 0 W/m 11,2 C 11,8 C 6,4 km/h (2 Bft)
24.09.2023 01:12 11,8 C 11,7 C 14,4 C 96 % 0 lf 1021,1 hPa 0,0 l/m 4,6 km/h (1 Bft) SW 218 0 min 0 min 0,000 mm 0,0 UV-I 0 W/m 11,2 C 11,8 C 8,0 km/h (2 Bft)
24.09.2023 01:10 11,8 C 11,7 C 14,4 C 96 % 0 lf 1021,0 hPa 0,0 l/m 2,4 km/h (1 Bft) S-SW 194 0 min 0 min 0,000 mm 0,0 UV-I 0 W/m 11,2 C 11,8 C 6,4 km/h (2 Bft)
24.09.2023 01:08 11,8 C 11,7 C 14,4 C 96 % 0 lf 1021,0 hPa 0,0 l/m 3,8 km/h (1 Bft) S-SW 211 0 min 0 min 0,000 mm 0,0 UV-I 0 W/m 11,2 C 11,8 C 8,0 km/h (2 Bft)
24.09.2023 01:06 11,8 C 11,7 C 14,4 C 96 % 0 lf 1021,0 hPa 0,0 l/m 3,3 km/h (1 Bft) SW 216 0 min 0 min 0,000 mm 0,0 UV-I 0 W/m 11,2 C 11,8 C 6,4 km/h (2 Bft)
24.09.2023 01:04 11,9 C 11,7 C 14,4 C 96 % 0 lf 1020,9 hPa 0,0 l/m 3,0 km/h (1 Bft) SW 224 0 min 0 min 0,000 mm 0,0 UV-I 0 W/m 11,3 C 11,9 C 6,4 km/h (2 Bft)
24.09.2023 01:02 11,9 C 11,7 C 14,4 C 96 % 0 lf 1020,9 hPa 0,0 l/m 3,5 km/h (1 Bft) SW 216 0 min 0 min 0,000 mm 0,0 UV-I 0 W/m 11,3 C 11,9 C 6,4 km/h (2 Bft)
24.09.2023 01:00 11,9 C 11,7 C 14,4 C 96 % 0 lf 1020,9 hPa 0,0 l/m 2,5 km/h (1 Bft) S-SW 209 0 min 0 min 0,000 mm 0,0 UV-I 0 W/m 11,3 C 11,9 C 6,4 km/h (2 Bft)
24.09.2023 00:58 11,9 C 11,7 C 14,4 C 96 % 0 lf 1020,8 hPa 0,0 l/m 2,5 km/h (1 Bft) S-SW 200 0 min 0 min 0,000 mm 0,0 UV-I 0 W/m 11,3 C 11,9 C 3,2 km/h (1 Bft)
24.09.2023 00:56 12,0 C 11,7 C 14,4 C 96 % 0 lf 1020,8 hPa 0,0 l/m 2,4 km/h (1 Bft) W-SW 238 0 min 0 min 0,000 mm 0,0 UV-I 0 W/m 11,4 C 12,0 C 3,2 km/h (1 Bft)
24.09.2023 00:54 12,0 C 11,7 C 14,4 C 96 % 0 lf 1020,8 hPa 0,0 l/m 2,2 km/h (1 Bft) SW 225 0 min 0 min 0,000 mm 0,0 UV-I 0 W/m 11,4 C 12,0 C 3,2 km/h (1 Bft)
24.09.2023 00:52 12,1 C 11,7 C 14,4 C 96 % 0 lf 1020,8 hPa 0,0 l/m 2,5 km/h (1 Bft) SW 226 0 min 0 min 0,000 mm 0,0 UV-I 0 W/m 11,5 C 12,1 C 3,2 km/h (1 Bft)
24.09.2023 00:50 12,1 C 12,2 C 14,4 C 96 % 0 lf 1020,8 hPa 0,0 l/m 3,0 km/h (1 Bft) W-SW 242 0 min 0 min 0,000 mm 0,0 UV-I 0 W/m 11,5 C 12,1 C 8,0 km/h (2 Bft)
24.09.2023 00:48 12,1 C 12,2 C 14,4 C 96 % 0 lf 1020,8 hPa 0,0 l/m 1,7 km/h (1 Bft) SW 229 0 min 0 min 0,000 mm 0,0 UV-I 0 W/m 11,5 C 12,1 C 3,2 km/h (1 Bft)
24.09.2023 00:46 12,1 C 12,2 C 14,4 C 96 % 0 lf 1020,8 hPa 0,0 l/m 2,6 km/h (1 Bft) SW 229 0 min 0 min 0,000 mm 0,0 UV-I 0 W/m 11,5 C 12,1 C 6,4 km/h (2 Bft)
24.09.2023 00:44 12,1 C 12,2 C 14,4 C 96 % 0 lf 1020,7 hPa 0,0 l/m 1,5 km/h (1 Bft) SW 221 0 min 0 min 0,000 mm 0,0 UV-I 0 W/m 11,5 C 12,1 C 3,2 km/h (1 Bft)
24.09.2023 00:42 12,1 C 12,2 C 14,4 C 96 % 0 lf 1020,7 hPa 0,0 l/m 0,9 km/h (0 Bft) W 278 0 min 0 min 0,000 mm 0,0 UV-I 0 W/m 11,5 C 12,1 C 1,6 km/h (1 Bft)
24.09.2023 00:40 12,1 C 12,2 C 14,4 C 96 % 0 lf 1020,7 hPa 0,0 l/m 0,2 km/h (0 Bft) W-SW 242 0 min 0 min 0,000 mm 0,0 UV-I 0 W/m 11,5 C 12,1 C 1,6 km/h (1 Bft)
24.09.2023 00:38 12,1 C 12,2 C 14,4 C 96 % 0 lf 1020,7 hPa 0,0 l/m 1,1 km/h (1 Bft) W-SW 242 0 min 0 min 0,000 mm 0,0 UV-I 0 W/m 11,5 C 12,1 C 3,2 km/h (1 Bft)
24.09.2023 00:36 12,1 C 12,2 C 14,4 C 96 % 0 lf 1020,8 hPa 0,0 l/m 2,7 km/h (1 Bft) SW 219 0 min 0 min 0,000 mm 0,0 UV-I 0 W/m 11,5 C 12,1 C 8,0 km/h (2 Bft)
24.09.2023 00:34 12,1 C 12,2 C 14,4 C 96 % 0 lf 1020,6 hPa 0,0 l/m 1,8 km/h (1 Bft) W-NW 282 0 min 0 min 0,000 mm 0,0 UV-I 0 W/m 11,5 C 12,1 C 4,8 km/h (1 Bft)
24.09.2023 00:32 12,1 C 12,2 C 14,4 C 96 % 0 lf 1020,6 hPa 0,0 l/m 2,5 km/h (1 Bft) W-SW 256 0 min 0 min 0,000 mm 0,0 UV-I 0 W/m 11,5 C 12,1 C 4,8 km/h (1 Bft)
24.09.2023 00:30 12,1 C 12,2 C 14,4 C 96 % 0 lf 1020,6 hPa 0,0 l/m 4,2 km/h (1 Bft) SW 225 0 min 0 min 0,000 mm 0,0 UV-I 0 W/m 11,5 C 12,1 C 8,0 km/h (2 Bft)
24.09.2023 00:28 12,1 C 12,2 C 14,4 C 96 % 0 lf 1020,7 hPa 0,0 l/m 4,3 km/h (1 Bft) S-SW 209 0 min 0 min 0,000 mm 0,0 UV-I 0 W/m 11,5 C 12,1 C 6,4 km/h (2 Bft)
24.09.2023 00:26 12,1 C 12,2 C 14,4 C 96 % 0 lf 1020,6 hPa 0,0 l/m 2,8 km/h (1 Bft) SW 229 0 min 0 min 0,000 mm 0,0 UV-I 0 W/m 11,5 C 12,1 C 6,4 km/h (2 Bft)
24.09.2023 00:24 12,1 C 12,2 C 14,4 C 96 % 0 lf 1020,7 hPa 0,0 l/m 1,9 km/h (1 Bft) SW 214 0 min 0 min 0,000 mm 0,0 UV-I 0 W/m 11,5 C 12,1 C 3,2 km/h (1 Bft)
24.09.2023 00:22 12,0 C 12,2 C 14,4 C 96 % 0 lf 1020,6 hPa 0,0 l/m 4,3 km/h (1 Bft) SW 216 0 min 0 min 0,000 mm 0,0 UV-I 0 W/m 11,4 C 12,0 C 6,4 km/h (2 Bft)
24.09.2023 00:20 11,9 C 12,2 C 14,4 C 96 % 0 lf 1020,6 hPa 0,0 l/m 2,1 km/h (1 Bft) S-SW 193 0 min 0 min 0,000 mm 0,0 UV-I 0 W/m 11,3 C 11,9 C 6,4 km/h (2 Bft)
24.09.2023 00:18 11,9 C 12,2 C 14,4 C 96 % 0 lf 1020,6 hPa 0,0 l/m 1,0 km/h (0 Bft) SW 232 0 min 0 min 0,000 mm 0,0 UV-I 0 W/m 11,3 C 11,9 C 3,2 km/h (1 Bft)
24.09.2023 00:16 11,9 C 12,2 C 14,4 C 96 % 0 lf 1020,6 hPa 0,0 l/m 1,4 km/h (1 Bft) W-SW 248 0 min 0 min 0,000 mm 0,0 UV-I 0 W/m 11,3 C 11,9 C 6,4 km/h (2 Bft)
24.09.2023 00:14 12,0 C 11,7 C 14,4 C 96 % 0 lf 1020,6 hPa 0,0 l/m 1,5 km/h (1 Bft) W-SW 249 0 min 0 min 0,000 mm 0,0 UV-I 0 W/m 11,4 C 12,0 C 3,2 km/h (1 Bft)
24.09.2023 00:12 12,0 C 11,7 C 14,4 C 96 % 0 lf 1020,6 hPa 0,0 l/m 0,8 km/h (0 Bft) SW 235 0 min 0 min 0,000 mm 0,0 UV-I 0 W/m 11,4 C 12,0 C 1,6 km/h (1 Bft)
24.09.2023 00:10 12,1 C 11,7 C 14,4 C 96 % 0 lf 1020,6 hPa 0,0 l/m 1,7 km/h (1 Bft) SW 235 0 min 0 min 0,000 mm 0,0 UV-I 0 W/m 11,5 C 12,1 C 8,0 km/h (2 Bft)
24.09.2023 00:08 12,1 C 11,7 C 14,4 C 96 % 0 lf 1020,6 hPa 0,0 l/m 1,9 km/h (1 Bft) N 350 0 min 0 min 0,000 mm 0,0 UV-I 0 W/m 11,5 C 12,1 C 6,4 km/h (2 Bft)
24.09.2023 00:06 12,1 C 11,7 C 14,4 C 96 % 0 lf 1020,6 hPa 0,0 l/m 0,7 km/h (0 Bft) W-SW 248 0 min 0 min 0,000 mm 0,0 UV-I 0 W/m 11,5 C 12,1 C 3,2 km/h (1 Bft)
24.09.2023 00:04 12,1 C 11,7 C 15,0 C 96 % 0 lf 1020,6 hPa 0,0 l/m 0,7 km/h (0 Bft) W-SW 251 0 min 0 min 0,000 mm 0,0 UV-I 0 W/m 11,5 C 12,1 C 1,6 km/h (1 Bft)
24.09.2023 00:02 12,2 C 11,7 C 15,0 C 96 % 0 lf 1020,6 hPa 0,0 l/m 1,7 km/h (1 Bft) S-SO 161 0 min 0 min 0,000 mm 0,0 UV-I 0 W/m 11,6 C 12,2 C 4,8 km/h (1 Bft)
24.09.2023 00:00 12,1 C 11,7 C 15,0 C 96 % 0 lf 1020,6 hPa 0,0 l/m 2,3 km/h (1 Bft) W 275 0 min 0 min 0,000 mm 0,0 UV-I 0 W/m 11,5 C 12,1 C 4,8 km/h (1 Bft)
_ Min-Zeit 04:40 04:56 10:06 03:54 10:06 00:34 - 05:02 - - - - - - - 04:40 08:08 05:02
Minimum _ 9,5 C 7,8 C 13,3 C 96 % 0 lf 1020,6 hPa - 0,0 km/h (0 Bft) - - - - - - - 9,0 C 9,2 C 0,0 km/h (0 Bft)
_ Max-Zeit 10:06 10:06 00:04 10:06 10:06 10:06 06:52 09:26 - - 10:06 06:52 10:02 10:06 09:58 10:06 10:06 09:26
Maximum _ 12,5 C 12,8 C 15,0 C 98 % 0 lf 1026,1 hPa 0,2 l/m 9,0 km/h
S (2 Bft)
- - 0 min 2 min 0,051 mm 0,0 UV-I 116 W/m 12,2 C 12,5 C 16,1 km/h
S-SO (3 Bft)
Durchschnitt _ 10,7 C 10,4 C 13,7 C 97 % 0 lf 1023,0 hPa #0,2 l/m 2,4 km/h (1 Bft) S-SW - #0 min. #2 min. #0,076 mm 0,0 UV-I 49 W/m 10,3 C 10,7 C 4,8 km/h (1 Bft)
Betreiber Volker Afflerbach